N539FX LROP-LFMN

Flight info

Callsign N539FX
Flight time N/A
Altitude 43000
Route POLUN DCT VIKBI DCT ELDET DCT LELTI DCT ANASA DCT SPL DCT XAMIT/N0489F450 DCT UTENO DCT NIKMA DCT TOBGA/N0507F300 DCT DOBIM DCT AKUTI R16 KERIT
Aircraft C750/M-SBDE3FGHRWXY/S

Departure

Time 2026-05-05 20:11
Airport Bucharest Henri Coandă International Airport (LROP)

Arrival

Time N/A
Airport Nice-Côte d'Azur Airport (LFMN)
Time Latitude Longitude Altitude Speed Heading
2026-05-05 19:57 44.56884 26.08192 319 ft 0 kts 354°
2026-05-05 20:05 44.56891 26.08191 319 ft 1 kts 354°
2026-05-05 20:05 44.56895 26.08191 318 ft 0 kts 354°
2026-05-05 20:06 44.56920 26.08187 318 ft 6 kts 354°
2026-05-05 20:06 44.56943 26.08212 319 ft 4 kts 84°
2026-05-05 20:06 44.56946 26.08262 319 ft 7 kts 84°
2026-05-05 20:07 44.56952 26.08341 319 ft 9 kts 89°
2026-05-05 20:07 44.56919 26.08403 319 ft 8 kts 151°
2026-05-05 20:07 44.56895 26.08470 319 ft 8 kts 91°
2026-05-05 20:07 44.56918 26.08543 318 ft 9 kts 31°
2026-05-05 20:08 44.56979 26.08543 319 ft 9 kts 351°
2026-05-05 20:08 44.57047 26.08532 319 ft 12 kts 354°
2026-05-05 20:08 44.57148 26.08517 319 ft 17 kts 354°
2026-05-05 20:08 44.57284 26.08498 319 ft 23 kts 355°
2026-05-05 20:09 44.57440 26.08475 318 ft 21 kts 354°
2026-05-05 20:09 44.57557 26.08458 319 ft 16 kts 354°
2026-05-05 20:09 44.57652 26.08446 319 ft 8 kts
2026-05-05 20:09 44.57666 26.08493 320 ft 4 kts 83°
2026-05-05 20:10 44.57667 26.08497 320 ft 0 kts 83°
2026-05-05 20:11 44.57669 26.08526 320 ft 11 kts 83°
2026-05-05 20:11 44.57702 26.08952 319 ft 97 kts 84°
2026-05-05 20:11 44.57799 26.10218 504 ft 144 kts 83°
2026-05-05 20:11 44.57888 26.11661 1138 ft 152 kts 88°
2026-05-05 20:12 44.57975 26.13184 1764 ft 167 kts 87°
2026-05-05 20:12 44.58119 26.14823 2591 ft 167 kts 83°
2026-05-05 20:12 44.58282 26.16554 3247 ft 192 kts 81°
2026-05-05 20:12 44.58472 26.18507 3973 ft 209 kts 81°
2026-05-05 20:13 44.58627 26.20551 4963 ft 209 kts 83°
2026-05-05 20:13 44.58745 26.22580 5973 ft 211 kts 82°
2026-05-05 20:13 44.58881 26.24720 6566 ft 232 kts 81°
2026-05-05 20:13 44.59063 26.27080 7105 ft 255 kts 81°
2026-05-05 20:14 44.58881 26.29674 7550 ft 288 kts 108°
2026-05-05 20:14 44.57604 26.32001 8001 ft 321 kts 140°
2026-05-05 20:14 44.55517 26.33206 8496 ft 335 kts 171°
2026-05-05 20:14 44.53181 26.32803 9184 ft 348 kts 201°
2026-05-05 20:15 44.51215 26.30866 9997 ft 349 kts 231°
2026-05-05 20:15 44.50113 26.27897 10753 ft 343 kts 257°
2026-05-05 20:15 44.49738 26.24622 11628 ft 339 kts 267°
2026-05-05 20:15 44.49469 26.21337 12523 ft 340 kts 266°
2026-05-05 20:16 44.48997 26.18026 13071 ft 355 kts 257°
2026-05-05 20:16 44.48144 26.14699 13494 ft 371 kts 250°
2026-05-05 20:16 44.47109 26.11322 13924 ft 383 kts 249°
2026-05-05 20:16 44.46113 26.07805 14313 ft 393 kts 252°
2026-05-05 20:17 44.45250 26.04181 14696 ft 402 kts 254°
2026-05-05 20:17 44.44343 26.00434 15094 ft 411 kts 252°
2026-05-05 20:17 44.43328 25.96656 15512 ft 417 kts 251°
2026-05-05 20:17 44.42297 25.92844 16054 ft 420 kts 251°
2026-05-05 20:18 44.41309 25.88976 16648 ft 423 kts 252°
2026-05-05 20:18 44.40325 25.85091 17249 ft 425 kts 252°
2026-05-05 20:18 44.39301 25.81187 17863 ft 428 kts 251°
2026-05-05 20:18 44.38258 25.77263 18459 ft 431 kts 251°
2026-05-05 20:19 44.37225 25.73308 19000 ft 434 kts 252°
2026-05-05 20:19 44.36191 25.69320 19557 ft 437 kts 252°
2026-05-05 20:19 44.35139 25.65309 20117 ft 441 kts 251°
2026-05-05 20:19 44.34072 25.61277 20687 ft 444 kts 251°
2026-05-05 20:20 44.33017 25.57275 21263 ft 446 kts 252°
2026-05-05 20:20 44.31942 25.53189 21859 ft 448 kts 252°
2026-05-05 20:20 44.30863 25.49097 22469 ft 450 kts 252°
2026-05-05 20:20 44.29771 25.44980 23088 ft 452 kts 252°
2026-05-05 20:21 44.28677 25.40862 23681 ft 453 kts 252°
2026-05-05 20:21 44.27581 25.36734 24213 ft 454 kts 252°
2026-05-05 20:21 44.26483 25.32602 24753 ft 455 kts 252°
2026-05-05 20:21 44.25379 25.28464 25301 ft 456 kts 252°
2026-05-05 20:22 44.24442 25.24257 25845 ft 453 kts 260°
2026-05-05 20:22 44.23993 25.19929 26384 ft 450 kts 269°
2026-05-05 20:22 44.24008 25.15584 26959 ft 447 kts 277°
2026-05-05 20:22 44.24190 25.11257 27565 ft 447 kts 277°
2026-05-05 20:23 44.24350 25.06917 28177 ft 449 kts 276°
2026-05-05 20:23 44.24507 25.02560 28695 ft 452 kts 276°
2026-05-05 20:23 44.24678 24.98163 29222 ft 455 kts 277°
2026-05-05 20:23 44.24850 24.93741 29739 ft 458 kts 276°
2026-05-05 20:24 44.25014 24.89294 30250 ft 460 kts 276°
2026-05-05 20:24 44.25175 24.84812 30713 ft 463 kts 276°
2026-05-05 20:24 44.25338 24.80323 31182 ft 465 kts 276°
2026-05-05 20:24 44.25500 24.75867 31655 ft 466 kts 276°
2026-05-05 20:25 44.25662 24.71334 32139 ft 468 kts 276°
2026-05-05 20:25 44.25820 24.66795 32634 ft 469 kts 276°
2026-05-05 20:25 44.25977 24.62248 33137 ft 469 kts 276°
2026-05-05 20:25 44.26132 24.57689 33651 ft 470 kts 276°
2026-05-05 20:26 44.26284 24.53137 34125 ft 470 kts 276°
2026-05-05 20:26 44.26436 24.48576 34570 ft 470 kts 276°
2026-05-05 20:26 44.26586 24.44016 35028 ft 470 kts 276°
2026-05-05 20:26 44.26734 24.39462 35493 ft 470 kts 275°
2026-05-05 20:27 44.26880 24.34892 35968 ft 470 kts 275°
2026-05-05 20:27 44.27022 24.30398 36443 ft 470 kts 275°
2026-05-05 20:27 44.27166 24.25789 36942 ft 469 kts 275°
2026-05-05 20:27 44.27306 24.21251 37449 ft 468 kts 275°
2026-05-05 20:28 44.27443 24.16716 37951 ft 467 kts 275°
2026-05-05 20:28 44.27577 24.12245 38467 ft 466 kts 275°
2026-05-05 20:28 44.27711 24.07723 38933 ft 465 kts 274°
2026-05-05 20:28 44.27843 24.03225 39360 ft 464 kts 274°
2026-05-05 20:29 44.27972 23.98735 39795 ft 462 kts 274°
2026-05-05 20:29 44.28100 23.94255 40185 ft 463 kts 274°
2026-05-05 20:29 44.28226 23.89763 40538 ft 464 kts 274°
2026-05-05 20:29 44.28351 23.85259 40901 ft 465 kts 274°
2026-05-05 20:30 44.28473 23.80748 41273 ft 465 kts 274°
2026-05-05 20:30 44.28595 23.76227 41647 ft 466 kts 274°
2026-05-05 20:30 44.28715 23.71704 42034 ft 466 kts 274°
2026-05-05 20:30 44.28833 23.67183 42427 ft 466 kts 274°
2026-05-05 20:31 44.28948 23.62704 42819 ft 466 kts 273°
2026-05-05 20:31 44.29063 23.58186 43234 ft 466 kts 273°
2026-05-05 20:31 44.29176 23.53671 43643 ft 465 kts 273°
2026-05-05 20:31 44.29286 23.49154 44015 ft 466 kts 273°
2026-05-05 20:32 44.29397 23.44588 43991 ft 474 kts 273°
2026-05-05 20:32 44.29618 23.35260 43988 ft 486 kts 273°
2026-05-05 20:33 44.29834 23.25797 43994 ft 490 kts 273°
2026-05-05 20:33 44.30043 23.16314 43998 ft 492 kts 273°
2026-05-05 20:34 44.30246 23.06737 43996 ft 494 kts 272°
2026-05-05 20:34 44.30442 22.97123 43995 ft 496 kts 272°
2026-05-05 20:35 44.30630 22.87486 43983 ft 497 kts 272°
2026-05-05 20:35 44.30810 22.77812 43983 ft 498 kts 272°
2026-05-05 20:36 44.30982 22.68201 43988 ft 498 kts 272°
2026-05-05 20:36 44.31146 22.58524 43989 ft 499 kts 272°
2026-05-05 20:37 44.30553 22.48868 43988 ft 500 kts 262°
2026-05-05 20:37 44.29503 22.39261 43987 ft 501 kts 263°
2026-05-05 20:38 44.28552 22.29635 43989 ft 501 kts 263°
2026-05-05 20:38 44.27516 22.20010 43996 ft 502 kts 263°
2026-05-05 20:39 44.26519 22.10359 43992 ft 502 kts 263°
2026-05-05 20:39 44.25491 22.00780 43992 ft 502 kts 263°
2026-05-05 20:40 44.24464 21.91128 43991 ft 502 kts 263°
2026-05-05 20:40 44.23420 21.81483 43992 ft 503 kts 263°
2026-05-05 20:41 44.22371 21.71839 43991 ft 503 kts 263°
2026-05-05 20:41 44.21315 21.62210 43977 ft 502 kts 263°
2026-05-05 20:42 44.20253 21.52604 43973 ft 501 kts 263°
2026-05-05 20:42 44.19191 21.43074 43963 ft 501 kts 263°
2026-05-05 20:43 44.18112 21.33476 43959 ft 501 kts 262°
2026-05-05 20:43 44.17029 21.23899 43966 ft 500 kts 262°
2026-05-05 20:44 44.15937 21.14331 43961 ft 500 kts 262°
2026-05-05 20:44 44.14838 21.04764 43963 ft 500 kts 262°
2026-05-05 20:45 44.13175 20.90430 43973 ft 500 kts 262°
2026-05-05 20:45 44.12055 20.80879 43975 ft 500 kts 262°
2026-05-05 20:46 44.10935 20.71386 43985 ft 500 kts 262°
2026-05-05 20:46 44.09799 20.61832 43999 ft 500 kts 262°
2026-05-05 20:47 44.08849 20.53891 43995 ft 500 kts 262°
2026-05-05 20:47 44.07693 20.44295 44005 ft 506 kts 262°
2026-05-05 20:48 44.06516 20.34608 44009 ft 510 kts 262°
2026-05-05 20:48 44.05326 20.24874 44007 ft 510 kts 262°
2026-05-05 20:49 44.04127 20.15142 44013 ft 510 kts 262°
2026-05-05 20:49 44.02922 20.05428 44013 ft 510 kts 261°
2026-05-05 20:50 44.01706 19.95703 44018 ft 510 kts 261°
2026-05-05 20:50 44.00487 19.86011 44013 ft 509 kts 261°
2026-05-05 20:51 43.99266 19.76386 44009 ft 509 kts 261°
2026-05-05 20:51 43.98030 19.66704 44008 ft 509 kts 261°
2026-05-05 20:52 43.96786 19.57026 44021 ft 509 kts 261°
2026-05-05 20:52 43.95537 19.47386 44023 ft 506 kts 261°
2026-05-05 20:53 43.94293 19.37833 44033 ft 506 kts 261°
2026-05-05 20:53 43.93032 19.28233 44037 ft 506 kts 261°
2026-05-05 20:54 43.91768 19.18668 44036 ft 503 kts 261°
2026-05-05 20:54 43.90499 19.09126 44043 ft 501 kts 260°
2026-05-05 20:55 43.89227 18.99627 44044 ft 501 kts 261°
2026-05-05 20:55 43.87949 18.90140 44042 ft 501 kts 260°
2026-05-05 20:56 43.86660 18.80651 44048 ft 501 kts 260°
2026-05-05 20:56 43.85375 18.71233 44044 ft 500 kts 260°
2026-05-05 20:57 43.84318 18.63545 44043 ft 498 kts 260°
2026-05-05 20:57 43.83024 18.54177 44039 ft 492 kts 260°
2026-05-05 20:58 43.81735 18.44911 44047 ft 487 kts 260°
2026-05-05 20:58 43.80450 18.35723 44036 ft 485 kts 260°
2026-05-05 20:59 43.79162 18.26573 44049 ft 483 kts 260°
2026-05-05 20:59 43.77869 18.17436 44048 ft 484 kts 259°
2026-05-05 21:00 43.76566 18.08295 44054 ft 485 kts 259°
2026-05-05 21:00 43.75254 17.99140 44055 ft 485 kts 259°